YAOGAN-40 02C

导读

YAOGAN-40 02C是中国于2025年5月11日发射的遥感卫星,归属于中国遥感卫星系列,该系列卫星主要服务于国土资源勘查、环境监测与保护、农作物估产、防灾减灾以及科学试验等领域,YAOGAN-40 02C延续系列使命,将进一步提升中国遥感观测能力,为相关领域应用提供稳定的数据支撑。

基本信息
目录编号:
63920
目录名称:
YAOGAN-40 02C
国际标识:
2025-096C
轨道中心:
EARTH
卫星名称:
YAOGAN-40 02C
卫星全名:
YAOGAN-40 02C
卫星状态:
在轨 (已飞行482 天)
发射日期:
2025-05-11 UTC
国别 :
中国 (CN)
星等 :
--
轨道信息
数据来源 国际轨道数据 AOE轨道数据
星历时间 2026-09-05T12:35:28+0800
6小时前
查看轨道信息
2026-09-02T02:00:00+0800
3天前
查看轨道信息
半长轴 7229.1km 7229.1km
偏心率 0.0002056 0.000208
轨道倾角 85.999° 86.000°
近地点辐角 87.311° 81.981°
升交点赤经 151.395° 152.935°
平近点角 272.830° 70.428°
近地点 849.476km 849.459km
远地点 852.45km 852.467km
周期 101.950分钟 101.950分钟
每日圈数 14.124609 14.124611
详细信息
使用方式:
暂无
2D轨道图
3D轨道图
轨道高度分析图
轨道倾角分析图
轨道综合分析图
查看轨道综合分析图